sat.trackr.live / text

‹ back to catalog

STARLINK-3553

NORAD 51866 · 2022-022Q

PAYLOAD ACTIVE UNKNOWN

§ Identity

Operator
Country
US
Launch date
2022-03-03
Launch site
AFETR
Launch vehicle
Mass (kg)
RCS (m²)

Purposes: comms

External: N2YO · Heavens-Above · Gunter

§ Orbital elements

Epoch: 2026-05-24T22:31:37.034976Z

Period
95.44 min
Inclination
53.2162°
Eccentricity
0.0001327
Mean motion
15.08843078 rev/d
Perigee alt
538.8 km
Apogee alt
540.7 km
Semi-major
6,917.9 km
B*
2.4392e-5
RAAN
26.6810°
Arg perigee
89.8768°
Mean anomaly
270.2376°
Rev number
23,462

§ Raw data

STARLINK-35531 51866U 22022Q   26144.93862309  .00000100  00000+0  24392-4 0  99952 51866  53.2162  26.6810 0001327  89.8768 270.2376 15.08843078234627

JSON: /api/v1/satellites/51866 · /tle

For live sub-satellite position, see the globe view (requires WebGL).

§ Visibility from observer

Set your observer location to see the next 7 days of passes ≥ 10°. The values pass through the URL so the page stays shareable.

No JS? Fill the form by hand. The geolocation button needs JavaScript.